Time,TemperatureF,DewpointF,PressureIn,WindDirection,WindDirectionDegrees,WindSpeedMPH,WindSpeedGustMPH,Humidity,HourlyPrecipIn,Conditions,Clouds,dailyrainin,SoftwareType,DateUTC
2013-09-25 00:01:00,62.8,61.3,27.82,North,0,0.0,0.0,95,0.00,,---,0.00,VWS V14.01,2013-09-25 04:01:00,
2013-09-25 00:03:00,62.8,61.3,27.82,North,0,0.9,0.9,95,0.00,,---,0.00,VWS V14.01,2013-09-25 04:03:00,
2013-09-25 00:08:00,62.8,61.3,27.82,North,0,0.0,0.0,95,0.00,,---,0.00,VWS V14.01,2013-09-25 04:08:00,
2013-09-25 00:13:00,62.8,61.3,27.82,North,0,0.0,0.0,95,0.00,,---,0.00,VWS V14.01,2013-09-25 04:13:00,
2013-09-25 00:18:00,62.8,61.3,27.82,North,0,2.2,2.2,95,0.00,,---,0.00,VWS V14.01,2013-09-25 04:18:00,
2013-09-25 00:23:00,62.8,61.3,27.82,North,0,0.0,0.0,95,0.00,,---,0.00,VWS V14.01,2013-09-25 04:23:00,
2013-09-25 00:28:00,62.6,61.2,27.82,North,0,0.0,0.0,95,0.00,,---,0.00,VWS V14.01,2013-09-25 04:28:00,
2013-09-25 00:33:00,62.6,61.2,27.82,North,0,0.0,0.0,95,0.00,,---,0.00,VWS V14.01,2013-09-25 04:33:00,
2013-09-25 00:38:00,62.6,61.2,27.82,North,0,0.0,0.0,95,0.00,,---,0.00,VWS V14.01,2013-09-25 04:38:00,
2013-09-25 00:43:00,62.6,61.2,27.82,North,0,0.0,0.0,95,0.00,,---,0.00,VWS V14.01,2013-09-25 04:43:00,
2013-09-25 00:48:00,62.6,61.5,27.82,North,0,0.0,0.9,96,0.00,,---,0.00,VWS V14.01,2013-09-25 04:48:00,
2013-09-25 00:53:00,62.4,61.3,27.82,North,0,0.0,0.0,96,0.00,,---,0.00,VWS V14.01,2013-09-25 04:53:00,
2013-09-25 00:58:00,62.2,61.1,27.82,North,0,0.0,0.0,96,0.00,,---,0.00,VWS V14.01,2013-09-25 04:58:00,
2013-09-25 01:03:00,62.2,61.1,27.82,North,0,0.0,0.0,96,0.00,,---,0.00,VWS V14.01,2013-09-25 05:03:00,
2013-09-25 01:09:00,62.2,61.1,27.82,North,0,0.0,0.0,96,0.00,,---,0.00,VWS V14.01,2013-09-25 05:09:00,
2013-09-25 01:14:00,62.2,61.1,27.82,North,0,0.0,0.0,96,0.00,,---,0.00,VWS V14.01,2013-09-25 05:14:00,
2013-09-25 01:19:00,62.2,61.4,27.82,North,0,0.0,0.0,97,0.00,,---,0.00,VWS V14.01,2013-09-25 05:19:00,
2013-09-25 01:24:00,62.2,61.4,27.79,North,0,0.0,0.0,97,0.00,,---,0.00,VWS V14.01,2013-09-25 05:24:00,
2013-09-25 01:29:00,62.2,61.4,27.79,North,0,0.0,0.0,97,0.00,,---,0.00,VWS V14.01,2013-09-25 05:29:00,
2013-09-25 01:34:00,62.1,61.2,27.79,North,0,0.0,0.0,97,0.00,,---,0.00,VWS V14.01,2013-09-25 05:34:00,
2013-09-25 01:39:00,62.1,61.2,27.79,North,0,0.0,0.0,97,0.00,,---,0.00,VWS V14.01,2013-09-25 05:39:00,
2013-09-25 01:44:00,62.1,61.2,27.79,North,0,0.0,0.0,97,0.00,,---,0.00,VWS V14.01,2013-09-25 05:44:00,
2013-09-25 01:49:00,62.1,61.2,27.79,North,0,0.0,1.1,97,0.00,,---,0.00,VWS V14.01,2013-09-25 05:49:00,
2013-09-25 01:54:00,62.1,61.2,27.79,North,0,0.0,0.0,97,0.00,,---,0.00,VWS V14.01,2013-09-25 05:54:00,
2013-09-25 01:59:00,62.1,61.2,27.79,North,0,0.0,0.0,97,0.00,,---,0.00,VWS V14.01,2013-09-25 05:59:00,
2013-09-25 02:04:00,62.1,61.2,27.79,North,0,0.0,0.9,97,0.00,,---,0.00,VWS V14.01,2013-09-25 06:04:00,
2013-09-25 02:09:00,62.1,61.2,27.79,North,0,0.9,0.9,97,0.00,,---,0.00,VWS V14.01,2013-09-25 06:09:00,
2013-09-25 02:14:00,62.1,61.2,27.79,North,0,0.0,0.0,97,0.00,,---,0.00,VWS V14.01,2013-09-25 06:14:00,
2013-09-25 02:19:00,62.1,61.2,27.79,North,0,0.0,0.9,97,0.00,,---,0.00,VWS V14.01,2013-09-25 06:19:00,
2013-09-25 02:24:00,62.1,61.2,27.79,North,0,0.0,0.0,97,0.00,,---,0.00,VWS V14.01,2013-09-25 06:24:00,
2013-09-25 02:29:00,62.1,61.2,27.79,North,0,0.9,0.9,97,0.00,,---,0.00,VWS V14.01,2013-09-25 06:29:00,
2013-09-25 02:34:00,62.1,61.2,27.79,North,0,0.0,0.0,97,0.00,,---,0.00,VWS V14.01,2013-09-25 06:34:00,
2013-09-25 02:39:00,62.1,61.2,27.79,North,0,0.0,0.0,97,0.00,,---,0.00,VWS V14.01,2013-09-25 06:39:00,
2013-09-25 02:44:00,62.1,61.2,27.79,North,0,0.0,0.0,97,0.00,,---,0.00,VWS V14.01,2013-09-25 06:44:00,
2013-09-25 02:49:00,62.1,61.2,27.79,North,0,0.0,1.6,97,0.00,,---,0.00,VWS V14.01,2013-09-25 06:49:00,
2013-09-25 02:55:00,62.1,61.2,27.79,North,0,0.0,0.9,97,0.00,,---,0.00,VWS V14.01,2013-09-25 06:55:00,
2013-09-25 03:00:00,62.1,61.2,27.79,North,0,1.1,1.1,97,0.00,,---,0.00,VWS V14.01,2013-09-25 07:00:00,
2013-09-25 03:05:00,62.1,61.2,27.79,North,0,0.0,0.0,97,0.00,,---,0.00,VWS V14.01,2013-09-25 07:05:00,
2013-09-25 03:10:00,62.1,61.2,27.79,North,0,0.0,0.0,97,0.00,,---,0.00,VWS V14.01,2013-09-25 07:10:00,
2013-09-25 03:15:00,62.1,61.2,27.79,North,0,0.0,0.0,97,0.00,,---,0.00,VWS V14.01,2013-09-25 07:15:00,
2013-09-25 03:20:00,62.1,61.2,27.79,North,0,0.0,0.0,97,0.00,,---,0.00,VWS V14.01,2013-09-25 07:20:00,
2013-09-25 03:25:00,61.9,61.0,27.79,North,0,0.0,0.0,97,0.00,,---,0.00,VWS V14.01,2013-09-25 07:25:00,
2013-09-25 03:30:00,61.9,61.0,27.79,North,0,0.0,0.0,97,0.00,,---,0.00,VWS V14.01,2013-09-25 07:30:00,
2013-09-25 03:35:00,62.1,61.2,27.79,North,0,0.0,0.0,97,0.00,,---,0.00,VWS V14.01,2013-09-25 07:35:00,
2013-09-25 03:40:00,62.1,61.2,27.79,North,0,0.0,0.0,97,0.00,,---,0.00,VWS V14.01,2013-09-25 07:40:00,
2013-09-25 03:45:00,62.1,61.2,27.79,North,0,0.0,0.0,97,0.00,,---,0.00,VWS V14.01,2013-09-25 07:45:00,
2013-09-25 03:50:00,61.9,61.0,27.79,North,0,0.0,0.0,97,0.00,,---,0.00,VWS V14.01,2013-09-25 07:50:00,
2013-09-25 03:55:00,61.9,61.0,27.79,North,0,0.0,0.0,97,0.00,,---,0.00,VWS V14.01,2013-09-25 07:55:00,
2013-09-25 04:00:00,61.9,61.0,27.79,North,0,0.0,0.0,97,0.00,,---,0.00,VWS V14.01,2013-09-25 08:00:00,
2013-09-25 04:06:00,61.9,61.0,27.76,North,0,0.0,0.0,97,0.00,,---,0.00,VWS V14.01,2013-09-25 08:06:00,
2013-09-25 04:11:00,61.9,61.0,27.76,North,0,0.0,0.0,97,0.00,,---,0.00,VWS V14.01,2013-09-25 08:11:00,
2013-09-25 04:16:00,61.9,61.0,27.76,North,0,0.0,0.0,97,0.00,,---,0.00,VWS V14.01,2013-09-25 08:16:00,
2013-09-25 04:21:00,61.9,61.0,27.76,North,0,0.0,0.0,97,0.00,,---,0.00,VWS V14.01,2013-09-25 08:21:00,
2013-09-25 04:26:00,61.9,61.3,27.76,North,0,0.0,0.0,98,0.00,,---,0.00,VWS V14.01,2013-09-25 08:26:00,
2013-09-25 04:31:00,61.9,61.3,27.76,North,0,0.0,0.0,98,0.00,,---,0.00,VWS V14.01,2013-09-25 08:31:00,
2013-09-25 04:36:00,61.9,61.3,27.76,North,0,0.0,0.0,98,0.00,,---,0.00,VWS V14.01,2013-09-25 08:36:00,
2013-09-25 04:41:00,61.9,61.3,27.76,North,0,0.0,0.0,98,0.00,,---,0.00,VWS V14.01,2013-09-25 08:41:00,
2013-09-25 04:46:00,61.9,61.3,27.76,North,0,0.0,0.0,98,0.00,,---,0.00,VWS V14.01,2013-09-25 08:46:00,
2013-09-25 04:51:00,61.9,61.3,27.76,North,0,0.0,0.0,98,0.00,,---,0.00,VWS V14.01,2013-09-25 08:51:00,
2013-09-25 04:56:00,61.9,61.3,27.76,North,0,0.0,0.0,98,0.00,,---,0.00,VWS V14.01,2013-09-25 08:56:00,
2013-09-25 05:01:00,61.9,61.3,27.76,North,0,0.0,0.0,98,0.00,,---,0.00,VWS V14.01,2013-09-25 09:01:00,
2013-09-25 05:06:00,61.9,61.3,27.76,North,0,0.0,0.0,98,0.00,,---,0.00,VWS V14.01,2013-09-25 09:06:00,
2013-09-25 05:11:00,61.9,61.3,27.76,North,0,0.0,0.0,98,0.00,,---,0.00,VWS V14.01,2013-09-25 09:11:00,
2013-09-25 05:16:00,61.9,61.3,27.76,North,0,0.0,0.0,98,0.00,,---,0.00,VWS V14.01,2013-09-25 09:16:00,
2013-09-25 05:21:00,61.9,61.3,27.76,North,0,0.0,0.0,98,0.00,,---,0.00,VWS V14.01,2013-09-25 09:21:00,
2013-09-25 05:26:00,61.9,61.3,27.76,North,0,0.0,0.0,98,0.00,,---,0.00,VWS V14.01,2013-09-25 09:26:00,
2013-09-25 05:31:00,61.9,61.3,27.76,North,0,0.0,0.0,98,0.00,,---,0.00,VWS V14.01,2013-09-25 09:31:00,
2013-09-25 05:36:00,61.9,61.3,27.76,North,0,0.0,0.0,98,0.00,,---,0.00,VWS V14.01,2013-09-25 09:36:00,
2013-09-25 05:42:00,61.9,61.3,27.76,North,0,0.0,0.0,98,0.00,,---,0.00,VWS V14.01,2013-09-25 09:42:00,
2013-09-25 05:47:00,61.9,61.3,27.76,North,0,0.0,0.0,98,0.00,,---,0.00,VWS V14.01,2013-09-25 09:47:00,
2013-09-25 05:52:00,61.9,61.3,27.76,North,0,0.0,0.0,98,0.00,,---,0.00,VWS V14.01,2013-09-25 09:52:00,
2013-09-25 05:57:00,62.1,61.5,27.76,North,0,0.0,0.0,98,0.00,,---,0.00,VWS V14.01,2013-09-25 09:57:00,
2013-09-25 06:02:00,61.9,61.3,27.76,North,0,0.0,0.0,98,0.00,,---,0.00,VWS V14.01,2013-09-25 10:02:00,
2013-09-25 06:07:00,61.9,61.3,27.76,North,0,0.0,0.0,98,0.00,,---,0.00,VWS V14.01,2013-09-25 10:07:00,
2013-09-25 06:12:00,61.9,61.3,27.76,North,0,0.0,0.0,98,0.00,,---,0.00,VWS V14.01,2013-09-25 10:12:00,
2013-09-25 06:17:00,61.9,61.3,27.76,North,0,0.0,0.0,98,0.00,,---,0.00,VWS V14.01,2013-09-25 10:17:00,
2013-09-25 06:22:00,61.9,61.3,27.79,North,0,0.0,0.0,98,0.00,,---,0.00,VWS V14.01,2013-09-25 10:22:00,
2013-09-25 06:27:00,61.9,61.3,27.79,North,0,0.0,0.0,98,0.00,,---,0.00,VWS V14.01,2013-09-25 10:27:00,
2013-09-25 06:32:00,61.9,61.3,27.79,North,0,0.0,0.0,98,0.00,,---,0.00,VWS V14.01,2013-09-25 10:32:00,
2013-09-25 06:37:00,61.9,61.3,27.76,North,0,0.0,0.0,98,0.00,,---,0.00,VWS V14.01,2013-09-25 10:37:00,
2013-09-25 06:42:00,61.9,61.3,27.76,North,0,0.0,0.0,98,0.00,,---,0.00,VWS V14.01,2013-09-25 10:42:00,
2013-09-25 06:47:00,61.9,61.3,27.76,North,0,0.0,0.0,98,0.00,,---,0.00,VWS V14.01,2013-09-25 10:47:00,
2013-09-25 06:52:00,61.9,61.3,27.76,North,0,0.0,0.0,98,0.00,,---,0.00,VWS V14.01,2013-09-25 10:52:00,
2013-09-25 06:57:00,61.9,61.3,27.76,North,0,0.0,0.0,98,0.00,,---,0.00,VWS V14.01,2013-09-25 10:57:00,
2013-09-25 07:02:00,61.9,61.3,27.76,North,0,0.0,0.0,98,0.00,,---,0.00,VWS V14.01,2013-09-25 11:02:00,
2013-09-25 07:07:00,61.9,61.3,27.76,North,0,0.0,0.0,98,0.00,,---,0.00,VWS V14.01,2013-09-25 11:07:00,
2013-09-25 07:12:00,61.9,61.3,27.76,North,0,0.9,2.7,98,0.00,,---,0.00,VWS V14.01,2013-09-25 11:12:00,
2013-09-25 07:17:00,61.9,61.3,27.76,North,0,0.0,0.0,98,0.00,,---,0.00,VWS V14.01,2013-09-25 11:17:00,
2013-09-25 07:22:00,62.1,61.5,27.76,North,0,0.0,0.0,98,0.00,,---,0.00,VWS V14.01,2013-09-25 11:22:00,
2013-09-25 07:28:00,62.1,61.5,27.76,North,0,0.0,0.0,98,0.00,,---,0.00,VWS V14.01,2013-09-25 11:28:00,
2013-09-25 07:33:00,62.1,61.5,27.76,North,0,0.0,0.0,98,0.00,,---,0.00,VWS V14.01,2013-09-25 11:33:00,
2013-09-25 07:38:00,62.1,61.5,27.79,North,0,0.0,0.0,98,0.00,,---,0.00,VWS V14.01,2013-09-25 11:38:00,
2013-09-25 07:43:00,62.1,61.5,27.79,North,0,0.0,0.0,98,0.00,,---,0.00,VWS V14.01,2013-09-25 11:43:00,
2013-09-25 07:48:00,62.1,61.5,27.79,North,0,0.0,0.0,98,0.00,,---,0.00,VWS V14.01,2013-09-25 11:48:00,
2013-09-25 07:53:00,62.1,61.5,27.79,North,0,0.0,0.0,98,0.00,,---,0.00,VWS V14.01,2013-09-25 11:53:00,
2013-09-25 07:58:00,62.1,61.5,27.79,North,0,0.0,0.0,98,0.00,,---,0.00,VWS V14.01,2013-09-25 11:58:00,
2013-09-25 08:03:00,62.1,61.5,27.79,North,0,0.0,0.0,98,0.00,,---,0.00,VWS V14.01,2013-09-25 12:03:00,
2013-09-25 08:08:00,61.9,61.3,27.79,North,0,0.0,0.0,98,0.00,,---,0.00,VWS V14.01,2013-09-25 12:08:00,
2013-09-25 08:13:00,62.1,61.5,27.79,North,0,0.0,0.0,98,0.00,,---,0.00,VWS V14.01,2013-09-25 12:13:00,
2013-09-25 08:18:00,61.9,61.3,27.79,North,0,0.0,0.0,98,0.00,,---,0.00,VWS V14.01,2013-09-25 12:18:00,
2013-09-25 08:23:00,62.1,61.5,27.79,North,0,0.0,0.0,98,0.00,,---,0.00,VWS V14.01,2013-09-25 12:23:00,
2013-09-25 08:27:00,62.1,61.5,27.79,North,0,0.0,0.0,98,0.00,,---,0.00,VWS V14.01,2013-09-25 12:27:00,
2013-09-25 08:32:00,62.1,61.5,27.79,North,0,0.0,0.0,98,0.00,,---,0.00,VWS V14.01,2013-09-25 12:32:00,
2013-09-25 08:37:00,62.1,61.5,27.79,North,0,0.0,0.0,98,0.00,,---,0.00,VWS V14.01,2013-09-25 12:37:00,
2013-09-25 08:42:00,62.1,61.5,27.79,North,0,0.0,0.0,98,0.00,,---,0.00,VWS V14.01,2013-09-25 12:42:00,
2013-09-25 08:47:00,62.1,61.5,27.79,North,0,0.0,0.0,98,0.00,,---,0.00,VWS V14.01,2013-09-25 12:47:00,
2013-09-25 08:52:00,62.1,61.5,27.79,North,0,0.0,0.9,98,0.00,,---,0.00,VWS V14.01,2013-09-25 12:52:00,
2013-09-25 08:57:00,62.1,61.5,27.79,North,0,0.0,0.0,98,0.00,,---,0.00,VWS V14.01,2013-09-25 12:57:00,
2013-09-25 09:02:00,62.1,61.5,27.79,North,0,0.0,0.0,98,0.00,,---,0.00,VWS V14.01,2013-09-25 13:02:00,
2013-09-25 09:07:00,62.1,61.5,27.79,North,0,0.0,0.0,98,0.00,,---,0.00,VWS V14.01,2013-09-25 13:07:00,
2013-09-25 09:12:00,62.1,61.5,27.79,North,0,1.3,1.3,98,0.00,,---,0.00,VWS V14.01,2013-09-25 13:12:00,
2013-09-25 09:17:00,62.1,61.5,27.79,North,0,0.0,0.0,98,0.00,,---,0.00,VWS V14.01,2013-09-25 13:17:00,
2013-09-25 09:22:00,62.1,61.5,27.79,North,0,0.0,0.0,98,0.00,,---,0.00,VWS V14.01,2013-09-25 13:22:00,
2013-09-25 09:27:00,62.1,61.5,27.79,North,0,0.9,2.0,98,0.00,,---,0.00,VWS V14.01,2013-09-25 13:27:00,
2013-09-25 09:32:00,62.1,61.5,27.79,North,0,1.6,2.0,98,0.00,,---,0.00,VWS V14.01,2013-09-25 13:32:00,
2013-09-25 09:37:00,62.1,61.5,27.79,North,0,0.0,0.0,98,0.00,,---,0.00,VWS V14.01,2013-09-25 13:37:00,
2013-09-25 09:42:00,62.1,61.5,27.79,South,180,0.0,0.0,98,0.00,,---,0.00,VWS V14.01,2013-09-25 13:42:00,
2013-09-25 09:47:00,62.2,61.7,27.79,ESE,112,0.0,0.9,98,0.00,,---,0.00,VWS V14.01,2013-09-25 13:47:00,
2013-09-25 09:52:00,62.2,61.7,27.79,South,180,0.0,0.0,98,0.00,,---,0.00,VWS V14.01,2013-09-25 13:52:00,
2013-09-25 09:57:00,62.2,61.7,27.79,East,90,0.0,0.0,98,0.00,,---,0.00,VWS V14.01,2013-09-25 13:57:00,
2013-09-25 10:02:00,62.2,61.7,27.79,SSE,158,0.0,0.0,98,0.00,,---,0.00,VWS V14.01,2013-09-25 14:02:00,
2013-09-25 10:07:00,62.2,61.7,27.79,ESE,112,0.0,0.0,98,0.00,,---,0.00,VWS V14.01,2013-09-25 14:07:00,
2013-09-25 10:13:00,62.2,61.7,27.79,East,90,0.0,0.0,98,0.00,,---,0.00,VWS V14.01,2013-09-25 14:13:00,
2013-09-25 10:18:00,62.4,61.8,27.79,East,90,0.0,1.6,98,0.00,,---,0.00,VWS V14.01,2013-09-25 14:18:00,
2013-09-25 10:23:00,62.4,61.8,27.79,ESE,112,0.0,0.0,98,0.00,,---,0.00,VWS V14.01,2013-09-25 14:23:00,
2013-09-25 10:28:00,62.4,61.8,27.79,ESE,112,0.0,0.0,98,0.00,,---,0.00,VWS V14.01,2013-09-25 14:28:00,
2013-09-25 10:33:00,62.6,61.7,27.79,ESE,112,0.0,0.0,97,0.00,,---,0.00,VWS V14.01,2013-09-25 14:33:00,
2013-09-25 10:38:00,62.6,61.7,27.79,ESE,112,0.0,0.0,97,0.00,,---,0.00,VWS V14.01,2013-09-25 14:38:00,
2013-09-25 10:43:00,62.6,61.7,27.79,ESE,112,0.0,0.0,97,0.00,,---,0.00,VWS V14.01,2013-09-25 14:43:00,
2013-09-25 10:48:00,62.6,61.7,27.79,East,90,1.3,1.3,97,0.00,,---,0.00,VWS V14.01,2013-09-25 14:48:00,
2013-09-25 10:53:00,62.8,61.9,27.79,NE,45,0.0,0.0,97,0.00,,---,0.00,VWS V14.01,2013-09-25 14:53:00,
2013-09-25 10:58:00,63.0,62.1,27.79,ENE,68,0.0,0.0,97,0.00,,---,0.00,VWS V14.01,2013-09-25 14:58:00,
2013-09-25 11:03:00,63.1,62.3,27.79,ENE,68,0.0,0.0,97,0.00,,---,0.00,VWS V14.01,2013-09-25 15:03:00,
2013-09-25 11:08:00,63.1,62.3,27.79,SSW,202,0.0,0.0,97,0.00,,---,0.00,VWS V14.01,2013-09-25 15:08:00,
2013-09-25 11:13:00,63.1,62.3,27.79,SE,135,0.0,0.0,97,0.00,,---,0.00,VWS V14.01,2013-09-25 15:13:00,
2013-09-25 11:18:00,63.1,62.3,27.79,NW,315,0.9,1.1,97,0.00,,---,0.00,VWS V14.01,2013-09-25 15:18:00,
2013-09-25 11:23:00,63.1,62.3,27.79,East,90,0.0,0.0,97,0.00,,---,0.00,VWS V14.01,2013-09-25 15:23:00,
2013-09-25 11:28:00,63.1,62.3,27.79,East,90,0.0,0.0,97,0.00,,---,0.00,VWS V14.01,2013-09-25 15:28:00,
2013-09-25 11:33:00,63.1,62.3,27.79,ESE,112,0.0,0.0,97,0.00,,---,0.00,VWS V14.01,2013-09-25 15:33:00,
2013-09-25 11:38:00,63.1,62.3,27.79,East,90,0.0,0.0,97,0.00,,---,0.00,VWS V14.01,2013-09-25 15:38:00,
2013-09-25 11:43:00,63.0,62.1,27.79,SSE,158,0.0,0.0,97,0.00,,---,0.00,VWS V14.01,2013-09-25 15:43:00,
2013-09-25 11:49:00,63.0,62.1,27.79,SSE,158,0.0,0.0,97,0.00,,---,0.00,VWS V14.01,2013-09-25 15:49:00,
2013-09-25 11:54:00,63.0,62.1,27.79,East,90,0.0,1.3,97,0.00,,---,0.00,VWS V14.01,2013-09-25 15:54:00,
2013-09-25 11:59:00,63.1,62.3,27.79,ESE,112,0.0,0.0,97,0.00,,---,0.00,VWS V14.01,2013-09-25 15:59:00,
2013-09-25 12:04:00,63.1,62.3,27.79,ENE,68,0.0,0.0,97,0.00,,---,0.00,VWS V14.01,2013-09-25 16:04:00,
2013-09-25 12:09:00,63.0,62.1,27.79,East,90,0.0,0.0,97,0.00,,---,0.00,VWS V14.01,2013-09-25 16:09:00,
2013-09-25 12:14:00,63.1,62.3,27.79,East,90,0.0,0.0,97,0.00,,---,0.00,VWS V14.01,2013-09-25 16:14:00,
2013-09-25 12:19:00,63.3,62.5,27.79,East,90,0.0,0.0,97,0.00,,---,0.00,VWS V14.01,2013-09-25 16:19:00,
2013-09-25 12:24:00,63.3,62.5,27.79,East,90,0.0,0.0,97,0.00,,---,0.00,VWS V14.01,2013-09-25 16:24:00,
2013-09-25 12:29:00,63.5,62.9,27.79,NE,45,0.0,0.0,98,0.00,,---,0.00,VWS V14.01,2013-09-25 16:29:00,
2013-09-25 12:34:00,63.5,62.6,27.79,ENE,68,0.0,0.0,97,0.00,,---,0.00,VWS V14.01,2013-09-25 16:34:00,
2013-09-25 12:39:00,63.5,62.6,27.79,NE,45,0.0,0.0,97,0.00,,---,0.00,VWS V14.01,2013-09-25 16:39:00,
2013-09-25 12:44:00,63.5,62.6,27.79,NE,45,0.0,0.0,97,0.00,,---,0.00,VWS V14.01,2013-09-25 16:44:00,
2013-09-25 12:49:00,63.5,62.6,27.79,NE,45,0.0,0.0,97,0.00,,---,0.00,VWS V14.01,2013-09-25 16:49:00,
2013-09-25 12:54:00,63.7,62.8,27.79,SE,135,1.1,1.6,97,0.00,,---,0.00,VWS V14.01,2013-09-25 16:54:00,
2013-09-25 12:59:00,63.7,62.8,27.79,NE,45,0.0,0.0,97,0.00,,---,0.00,VWS V14.01,2013-09-25 16:59:00,
2013-09-25 13:04:00,63.7,62.8,27.79,West,270,0.0,0.0,97,0.00,,---,0.00,VWS V14.01,2013-09-25 17:04:00,
2013-09-25 13:09:00,63.9,63.0,27.79,NW,315,0.0,0.0,97,0.00,,---,0.00,VWS V14.01,2013-09-25 17:09:00,
2013-09-25 13:14:00,63.9,63.0,27.79,ESE,112,0.0,0.0,97,0.00,,---,0.00,VWS V14.01,2013-09-25 17:14:00,
2013-09-25 13:19:00,63.9,63.0,27.79,ESE,112,0.0,0.0,97,0.00,,---,0.00,VWS V14.01,2013-09-25 17:19:00,
2013-09-25 13:25:00,63.9,63.0,27.79,ESE,112,0.0,0.0,97,0.00,,---,0.00,VWS V14.01,2013-09-25 17:25:00,
2013-09-25 13:30:00,63.9,63.0,27.79,SSW,202,0.0,0.0,97,0.00,,---,0.00,VWS V14.01,2013-09-25 17:30:00,
2013-09-25 13:35:00,63.9,63.0,27.79,SSE,158,0.0,0.0,97,0.00,,---,0.00,VWS V14.01,2013-09-25 17:35:00,
2013-09-25 13:40:00,64.0,63.2,27.79,SSE,158,0.0,0.0,97,0.00,,---,0.00,VWS V14.01,2013-09-25 17:40:00,
2013-09-25 13:45:00,64.0,63.2,27.79,East,90,0.0,0.0,97,0.00,,---,0.00,VWS V14.01,2013-09-25 17:45:00,
2013-09-25 13:50:00,63.9,63.0,27.79,NE,45,0.0,0.0,97,0.00,,---,0.00,VWS V14.01,2013-09-25 17:50:00,
2013-09-25 13:55:00,63.9,63.0,27.79,NE,45,0.0,0.0,97,0.00,,---,0.00,VWS V14.01,2013-09-25 17:55:00,
2013-09-25 14:00:00,63.9,63.0,27.79,NNE,22,0.0,0.0,97,0.00,,---,0.00,VWS V14.01,2013-09-25 18:00:00,
2013-09-25 14:05:00,63.9,63.0,27.76,NNE,22,0.0,0.0,97,0.00,,---,0.00,VWS V14.01,2013-09-25 18:05:00,
2013-09-25 14:10:00,63.9,63.0,27.76,NNE,22,0.0,0.0,97,0.00,,---,0.00,VWS V14.01,2013-09-25 18:10:00,
2013-09-25 14:15:00,63.9,63.0,27.76,NNE,22,0.0,0.0,97,0.00,,---,0.00,VWS V14.01,2013-09-25 18:15:00,
2013-09-25 14:20:00,63.7,62.8,27.79,South,180,0.0,0.0,97,0.00,,---,0.00,VWS V14.01,2013-09-25 18:20:00,
2013-09-25 14:25:00,63.7,62.8,27.79,SE,135,0.0,0.0,97,0.00,,---,0.00,VWS V14.01,2013-09-25 18:25:00,
2013-09-25 14:30:00,63.9,63.0,27.79,SE,135,0.0,0.0,97,0.00,,---,0.00,VWS V14.01,2013-09-25 18:30:00,
2013-09-25 14:35:00,63.7,62.8,27.79,East,90,0.0,0.0,97,0.00,,---,0.00,VWS V14.01,2013-09-25 18:35:00,
2013-09-25 14:40:00,63.9,63.0,27.76,South,180,0.0,0.0,97,0.00,,---,0.00,VWS V14.01,2013-09-25 18:40:00,
2013-09-25 14:46:00,63.9,63.0,27.76,West,270,0.0,0.0,97,0.00,,---,0.00,VWS V14.01,2013-09-25 18:46:00,
2013-09-25 14:51:00,63.9,63.0,27.76,NNE,22,0.0,0.0,97,0.00,,---,0.00,VWS V14.01,2013-09-25 18:51:00,
2013-09-25 14:56:00,63.9,63.0,27.76,NNW,338,0.0,1.1,97,0.00,,---,0.00,VWS V14.01,2013-09-25 18:56:00,
2013-09-25 15:01:00,63.9,63.0,27.76,NNW,338,0.0,0.0,97,0.00,,---,0.00,VWS V14.01,2013-09-25 19:01:00,
2013-09-25 15:06:00,63.9,63.0,27.76,NNW,338,0.0,0.0,97,0.00,,---,0.00,VWS V14.01,2013-09-25 19:06:00,
2013-09-25 15:11:00,63.9,63.0,27.76,North,0,0.0,0.0,97,0.00,,---,0.00,VWS V14.01,2013-09-25 19:11:00,
2013-09-25 15:16:00,63.9,63.0,27.76,North,0,0.0,0.0,97,0.00,,---,0.00,VWS V14.01,2013-09-25 19:16:00,
2013-09-25 15:21:00,63.9,63.0,27.76,North,0,0.0,0.0,97,0.00,,---,0.00,VWS V14.01,2013-09-25 19:21:00,
2013-09-25 15:26:00,63.9,63.0,27.76,East,90,0.0,0.0,97,0.00,,---,0.00,VWS V14.01,2013-09-25 19:26:00,
2013-09-25 15:31:00,64.0,63.2,27.76,ESE,112,0.0,0.0,97,0.00,,---,0.00,VWS V14.01,2013-09-25 19:31:00,
2013-09-25 15:36:00,64.0,63.2,27.76,ESE,112,0.0,0.0,97,0.00,,---,0.00,VWS V14.01,2013-09-25 19:36:00,
2013-09-25 15:41:00,64.0,63.2,27.76,NE,45,0.0,0.0,97,0.00,,---,0.00,VWS V14.01,2013-09-25 19:41:00,
2013-09-25 15:46:00,63.9,63.0,27.76,NE,45,0.0,0.0,97,0.00,,---,0.00,VWS V14.01,2013-09-25 19:46:00,
2013-09-25 15:51:00,64.0,63.2,27.76,NE,45,0.0,0.0,97,0.00,,---,0.00,VWS V14.01,2013-09-25 19:51:00,
2013-09-25 15:56:00,64.0,63.2,27.76,NE,45,0.0,0.0,97,0.00,,---,0.00,VWS V14.01,2013-09-25 19:56:00,
2013-09-25 16:02:00,64.0,63.2,27.76,NE,45,0.0,0.0,97,0.00,,---,0.00,VWS V14.01,2013-09-25 20:02:00,
2013-09-25 16:07:00,64.0,63.2,27.76,NE,45,0.0,0.0,97,0.00,,---,0.00,VWS V14.01,2013-09-25 20:07:00,
2013-09-25 16:12:00,64.0,63.2,27.76,ENE,68,0.0,0.0,97,0.00,,---,0.00,VWS V14.01,2013-09-25 20:12:00,
2013-09-25 16:17:00,64.0,63.2,27.76,ENE,68,0.0,0.0,97,0.00,,---,0.00,VWS V14.01,2013-09-25 20:17:00,
2013-09-25 16:22:00,64.0,63.2,27.76,West,270,0.0,0.0,97,0.00,,---,0.00,VWS V14.01,2013-09-25 20:22:00,
2013-09-25 16:27:00,64.0,63.2,27.76,West,270,0.0,0.0,97,0.00,,---,0.00,VWS V14.01,2013-09-25 20:27:00,
2013-09-25 16:32:00,63.9,63.0,27.76,SSW,202,0.0,0.0,97,0.00,,---,0.00,VWS V14.01,2013-09-25 20:32:00,
2013-09-25 16:37:00,63.9,63.0,27.76,SSW,202,0.0,0.0,97,0.00,,---,0.00,VWS V14.01,2013-09-25 20:37:00,
2013-09-25 16:42:00,63.9,63.0,27.76,SSW,202,0.0,0.0,97,0.00,,---,0.00,VWS V14.01,2013-09-25 20:42:00,
2013-09-25 16:47:00,63.9,63.0,27.76,NE,45,0.0,0.0,97,0.00,,---,0.00,VWS V14.01,2013-09-25 20:47:00,
2013-09-25 16:52:00,63.9,63.0,27.76,NE,45,0.0,0.0,97,0.00,,---,0.00,VWS V14.01,2013-09-25 20:52:00,
2013-09-25 16:57:00,64.0,63.2,27.76,NE,45,0.0,0.0,97,0.00,,---,0.00,VWS V14.01,2013-09-25 20:57:00,
2013-09-25 17:02:00,64.2,63.3,27.76,ENE,68,1.1,1.1,97,0.00,,---,0.00,VWS V14.01,2013-09-25 21:02:00,
2013-09-25 17:07:00,64.0,63.2,27.76,ENE,68,0.0,0.0,97,0.00,,---,0.00,VWS V14.01,2013-09-25 21:07:00,
2013-09-25 17:12:00,64.0,63.2,27.76,ENE,68,0.0,0.0,97,0.00,,---,0.00,VWS V14.01,2013-09-25 21:12:00,
2013-09-25 17:17:00,63.9,63.0,27.76,ENE,68,0.0,0.0,97,0.00,,---,0.00,VWS V14.01,2013-09-25 21:17:00,
2013-09-25 17:22:00,63.9,63.0,27.76,ENE,68,0.0,0.0,97,0.00,,---,0.00,VWS V14.01,2013-09-25 21:22:00,
2013-09-25 17:27:00,63.9,63.0,27.76,ENE,68,0.0,0.0,97,0.00,,---,0.00,VWS V14.01,2013-09-25 21:27:00,
2013-09-25 17:32:00,63.9,63.0,27.76,WNW,292,0.0,0.0,97,0.00,,---,0.00,VWS V14.01,2013-09-25 21:32:00,
2013-09-25 17:37:00,63.9,63.0,27.76,WNW,292,0.0,0.0,97,0.00,,---,0.00,VWS V14.01,2013-09-25 21:37:00,
2013-09-25 17:42:00,63.9,63.0,27.76,WNW,292,0.0,0.0,97,0.00,,---,0.00,VWS V14.01,2013-09-25 21:42:00,
2013-09-25 17:47:00,63.9,63.0,27.76,WNW,292,0.0,0.0,97,0.00,,---,0.00,VWS V14.01,2013-09-25 21:47:00,
2013-09-25 17:52:00,63.7,62.8,27.76,WNW,292,0.0,0.0,97,0.00,,---,0.00,VWS V14.01,2013-09-25 21:52:00,
2013-09-25 17:57:00,63.7,62.8,27.76,WNW,292,0.0,0.0,97,0.00,,---,0.00,VWS V14.01,2013-09-25 21:57:00,
2013-09-25 18:03:00,63.9,63.0,27.76,WNW,292,0.0,0.0,97,0.00,,---,0.00,VWS V14.01,2013-09-25 22:03:00,
2013-09-25 18:08:00,63.9,63.0,27.76,WNW,292,0.0,0.0,97,0.00,,---,0.00,VWS V14.01,2013-09-25 22:08:00,
2013-09-25 18:13:00,64.0,63.2,27.76,WNW,292,0.0,0.0,97,0.00,,---,0.00,VWS V14.01,2013-09-25 22:13:00,
2013-09-25 18:18:00,64.0,63.2,27.76,ENE,68,0.0,0.0,97,0.00,,---,0.00,VWS V14.01,2013-09-25 22:18:00,
2013-09-25 18:23:00,64.0,63.2,27.76,ENE,68,0.0,0.0,97,0.00,,---,0.00,VWS V14.01,2013-09-25 22:23:00,
2013-09-25 18:28:00,64.0,63.5,27.76,ENE,68,0.0,0.0,98,0.00,,---,0.00,VWS V14.01,2013-09-25 22:28:00,
2013-09-25 18:33:00,63.9,63.0,27.76,ENE,68,0.0,0.0,97,0.00,,---,0.00,VWS V14.01,2013-09-25 22:33:00,
2013-09-25 18:38:00,63.9,63.0,27.76,ENE,68,0.0,0.0,97,0.00,,---,0.00,VWS V14.01,2013-09-25 22:38:00,
2013-09-25 18:43:00,63.9,63.0,27.76,ENE,68,0.0,0.0,97,0.00,,---,0.00,VWS V14.01,2013-09-25 22:43:00,
2013-09-25 18:48:00,63.7,62.8,27.76,ENE,68,0.0,0.0,97,0.00,,---,0.00,VWS V14.01,2013-09-25 22:48:00,
2013-09-25 18:53:00,63.7,62.8,27.79,ENE,68,0.0,0.0,97,0.00,,---,0.00,VWS V14.01,2013-09-25 22:53:00,
2013-09-25 18:58:00,63.7,62.8,27.79,ENE,68,0.0,0.0,97,0.00,,---,0.00,VWS V14.01,2013-09-25 22:58:00,
2013-09-25 19:03:00,63.7,62.8,27.79,ENE,68,0.0,0.0,97,0.00,,---,0.00,VWS V14.01,2013-09-25 23:03:00,
2013-09-25 19:08:00,63.7,62.8,27.79,ENE,68,0.0,0.0,97,0.00,,---,0.00,VWS V14.01,2013-09-25 23:08:00,
2013-09-25 19:13:00,63.7,62.8,27.79,ENE,68,0.0,0.0,97,0.00,,---,0.00,VWS V14.01,2013-09-25 23:13:00,
2013-09-25 19:18:00,63.7,62.8,27.79,ENE,68,0.0,0.0,97,0.00,,---,0.00,VWS V14.01,2013-09-25 23:18:00,
2013-09-25 19:23:00,63.7,62.8,27.79,ENE,68,0.0,0.0,97,0.00,,---,0.00,VWS V14.01,2013-09-25 23:23:00,
2013-09-25 19:28:00,63.5,62.6,27.79,ENE,68,0.0,0.0,97,0.00,,---,0.00,VWS V14.01,2013-09-25 23:28:00,
2013-09-25 19:33:00,63.5,62.6,27.79,ENE,68,0.0,0.0,97,0.00,,---,0.00,VWS V14.01,2013-09-25 23:33:00,